FW8315 Weather Reports


time (UTC)temp
C
wind
direction
speed
KPH
gust
KPH
rain 1hr
cm
rain 24hr
cm
rain mn
cm
humidity
%
barometer
mb
20260906064031 22 3 8.0 16.1 0.00 0.00 0.00 60 1018.7
20260906063025 22 355 9.7 22.5 0.00 0.00 0.00 60 1018.6
20260906062027 22 6 9.7 17.7 0.00 0.00 0.00 60 1018.1
20260906061029 21 8 8.0 16.1 0.00 0.00 0.00 61 1018.3
20260906060021 21 1 12.9 22.5 0.00 0.00 0.00 62 1018.2
20260906055022 20 3 9.7 24.1 0.00 0.00 0.00 63 1018.1
20260906054028 20 344 11.3 20.9 0.00 0.00 0.00 64 1018.0
20260906053032 20 5 9.7 22.5 0.00 0.00 0.00 65 1017.8
20260906052041 20 1 9.7 24.1 0.00 0.00 0.00 66 1017.8
20260906043028 18 359 6.4 14.5 0.00 0.00 0.00 75 1017.0
20260906042016 18 11 4.8 14.5 0.00 0.00 0.00 76 1017.0
20260906041021 18 3 6.4 12.9 0.00 0.00 0.00 76 1016.7
20260906040026 18 8 4.8 9.7 0.00 0.00 0.00 76 1016.5
20260906035032 18 16 4.8 9.7 0.00 0.00 0.00 76 1016.4
20260906034019 18 10 6.4 14.5 0.00 0.00 0.00 76 1016.5
20260906033024 17 19 6.4 12.9 0.00 0.00 0.00 76 1016.3
20260906032029 17 22 6.4 14.5 0.00 0.00 0.00 75 1016.2
20260906031017 17 32 4.8 11.3 0.00 0.00 0.00 75 1016.3
20260906030022 17 9 6.4 12.9 0.00 0.00 0.00 75 1016.0
20260906025027 17 15 6.4 12.9 0.00 0.00 0.00 75 1016.0
20260906024032 17 5 6.4 12.9 0.00 0.00 0.00 74 1015.7
20260906023019 17 16 4.8 11.3 0.00 0.00 0.00 74 1015.5
20260906022024 17 14 4.8 9.7 0.00 0.00 0.00 74 1015.5
20260906021050 17 1 6.4 12.9 0.00 0.00 0.00 74 1015.5
20260906012021 18 327 3.2 9.7 0.00 0.00 0.00 70 1015.0
20260906011026 18 306 4.8 12.9 0.00 0.00 0.00 71 1015.0
20260906010030 18 301 4.8 6.4 0.00 0.00 0.00 71 1014.9
20260906005018 18 288 1.6 3.2 0.00 0.00 0.00 71 1015.0
20260906004024 18 286 3.2 4.8 0.00 0.00 0.00 71 1015.1
20260906003028 18 289 4.8 12.9 0.00 0.00 0.00 70 1015.0
20260906002016 18 319 4.8 14.5 0.00 0.00 0.00 71 1015.0
20260906001021 18 213 0.0 0.0 0.00 0.00 0.00 70 1014.8
20260906000026 18 213 0.0 3.2 0.00 0.00 0.00 69 1014.7
20260905235031 18 213 1.6 4.8 0.00 0.00 0.00 69 1014.7
20260905234020 19 195 1.6 3.2 0.00 0.00 0.00 68 1014.7
20260905233024 19 206 1.6 4.8 0.00 0.00 0.00 68 1014.7
20260905232029 19 204 1.6 6.4 0.00 0.00 0.00 69 1014.8
20260905231017 19 200 1.6 4.8 0.00 0.00 0.00 70 1014.8
20260905230022 19 179 3.2 6.4 0.00 0.00 0.00 70 1014.9
20260905225032 19 192 1.6 4.8 0.00 0.00 0.00 70 1014.9
20260905224032 19 185 1.6 3.2 0.00 0.00 0.00 71 1014.9
20260905223020 19 194 3.2 6.4 0.00 0.00 0.00 70 1015.0
20260905222025 19 179 4.8 9.7 0.00 0.00 0.00 70 1015.0
20260905221030 19 176 3.2 6.4 0.00 0.00 0.00 71 1015.1
20260905220018 19 180 0.0 3.2 0.00 0.00 0.00 71 1015.1
20260905215023 19 171 3.2 4.8 0.00 0.00 0.00 71 1015.2
20260905214027 20 181 4.8 6.4 0.00 0.00 0.00 72 1015.2
20260905213016 20 174 4.8 9.7 0.00 0.00 0.00 70 1015.3
20260905212021 20 178 3.2 6.4 0.00 0.00 0.00 70 1015.3
20260905211025 20 176 1.6 4.8 0.00 0.00 0.00 70 1015.2
20260905210030 20 177 1.6 4.8 0.00 0.00 0.00 69 1015.3
20260905205031 20 164 1.6 3.2 0.00 0.00 0.00 68 1015.3
20260905204019 20 170 1.6 4.8 0.00 0.00 0.00 68 1015.2
20260905203044 20 161 3.2 6.4 0.00 0.00 0.00 69 1015.3
20260905194032 20 176 1.6 3.2 0.00 0.00 0.00 68 1015.5
20260905193020 20 172 1.6 3.2 0.00 0.00 0.00 67 1015.5
20260905192025 20 164 1.6 3.2 0.00 0.00 0.00 66 1015.5
20260905191030 20 161 1.6 4.8 0.00 0.00 0.00 66 1015.4
20260905190058 21 170 1.6 3.2 0.00 0.00 0.00 65 1015.3
20260905173029 23 159 6.4 14.5 0.00 0.00 0.00 59 1015.1
20260905172017 23 167 6.4 14.5 0.00 0.00 0.00 58 1015.1
20260905171022 23 164 6.4 12.9 0.00 0.00 0.00 58 1015.1
20260905170027 24 169 6.4 12.9 0.00 0.00 0.00 57 1014.9
20260905165032 25 167 6.4 12.9 0.00 0.00 0.00 56 1015.0
20260905164020 25 163 6.4 14.5 0.00 0.00 0.00 55 1015.0
20260905163025 25 164 8.0 20.9 0.00 0.00 0.00 54 1015.0
20260905162030 26 159 9.7 17.7 0.00 0.00 0.00 53 1014.9
20260905161018 26 174 8.0 16.1 0.00 0.00 0.00 53 1014.9
20260905160023 26 163 9.7 22.5 0.00 0.00 0.00 53 1014.6
20260905155028 27 186 11.3 24.1 0.00 0.00 0.00 53 1014.9
20260905154033 27 176 11.3 22.5 0.00 0.00 0.00 52 1014.8
20260905153021 27 156 9.7 22.5 0.00 0.00 0.00 51 1014.6
20260905152026 27 152 11.3 20.9 0.00 0.00 0.00 49 1014.7
20260905151031 28 152 12.9 22.5 0.00 0.00 0.00 48 1014.7
20260905142021 30 152 12.9 30.6 0.00 0.00 0.00 43 1014.8
20260905141026 30 145 17.7 30.6 0.00 0.00 0.00 42 1014.8
20260905140031 30 150 16.1 30.6 0.00 0.00 0.00 41 1014.8
20260905135019 31 151 12.9 24.1 0.00 0.00 0.00 39 1014.8
20260905134024 31 178 4.8 16.1 0.00 0.00 0.00 35 1014.9
20260905133029 31 237 6.4 20.9 0.00 0.00 0.00 33 1014.8
20260905132017 31 242 4.8 16.1 0.00 0.00 0.00 33 1014.9
20260905131022 31 219 4.8 12.9 0.00 0.00 0.00 34 1015.0
20260905130027 32 345 4.8 14.5 0.00 0.00 0.00 34 1015.1
20260905125032 31 231 6.4 16.1 0.00 0.00 0.00 34 1015.2
20260905124020 31 291 8.0 16.1 0.00 0.00 0.00 33 1015.3
20260905123025 31 261 4.8 11.3 0.00 0.00 0.00 36 1015.3
20260905122030 31 218 4.8 17.7 0.00 0.00 0.00 35 1015.6
20260905121018 31 196 4.8 14.5 0.00 0.00 0.00 35 1015.6
20260905120025 31 267 11.3 20.9 0.00 0.00 0.00 35 1015.8
20260905115028 31 229 6.4 14.5 0.00 0.00 0.00 35 1015.9
20260905114016 30 256 9.7 17.7 0.00 0.00 0.00 37 1016.0
20260905113021 30 327 3.2 6.4 0.00 0.00 0.00 35 1015.9
20260905112026 30 276 6.4 17.7 0.00 0.00 0.00 36 1016.2
20260905111031 30 296 6.4 14.5 0.00 0.00 0.00 35 1016.2
20260905102022 29 216 3.2 12.9 0.00 0.00 0.00 40 1016.6
20260905101027 29 239 4.8 11.3 0.00 0.00 0.00 40 1016.8
20260905100033 29 243 6.4 17.7 0.00 0.00 0.00 40 1016.8
20260905095019 28 94 3.2 6.4 0.00 0.00 0.00 41 1016.8
20260905094024 28 260 4.8 14.5 0.00 0.00 0.00 40 1017.0
20260905093029 28 204 3.2 16.1 0.00 0.00 0.00 40 1017.1
20260905092017 28 280 9.7 22.5 0.00 0.00 0.00 40 1017.1
20260905091023 28 247 1.6 12.9 0.00 0.00 0.00 41 1017.1
20260905090027 28 244 8.0 16.1 0.00 0.00 0.00 42 1017.2
20260905085032 28 242 9.7 22.5 0.00 0.00 0.00 43 1017.2
20260905084020 28 188 6.4 17.7 0.00 0.00 0.00 42 1017.3
20260905083025 28 231 4.8 20.9 0.00 0.00 0.00 43 1017.3
20260905082030 27 181 8.0 16.1 0.00 0.00 0.00 43 1017.2
20260905081018 27 254 6.4 14.5 0.00 0.00 0.00 44 1017.4
20260905080023 27 189 6.4 14.5 0.00 0.00 0.00 45 1017.3
20260905075028 27 181 8.0 17.7 0.00 0.00 0.00 47 1017.3
20260905074016 27 231 6.4 14.5 0.00 0.00 0.00 48 1017.4
20260905073021 27 236 6.4 12.9 0.00 0.00 0.00 48 1017.3
20260905072026 26 229 6.4 16.1 0.00 0.00 0.00 50 1017.4
20260905071031 26 248 6.4 14.5 0.00 0.00 0.00 51 1017.4
20260905070019 26 206 4.8 11.3 0.00 0.00 0.00 51 1017.4
20260905065024 26 222 4.8 12.9 0.00 0.00 0.00 53 1017.3